Location: 22
(39.7117°N, 89.5929°W)
Time: 18:10:43
(UTC-05:00)

Gurwin Techsat 1B - Pass Details

Date: 07 April 2023
Orbit: 811 x 813 km, 98.9° (Epoch: 06 June)

Event Time Altitude Azimuth Distance (km) Brightness Sun altitude
Rises 04:49:09 0° 2° (N) 3,346 12.2 -19.8°
Reaches altitude 10° 04:51:44 10° 353° (N) 2,410 11.3 -19.4°
Maximum altitude 04:56:18 30° 293° (WNW) 1,418 9.5 -18.6°
Enters shadow 04:57:17 28° 273° (W) 1,477 9.5 -18.4°
